Theta_e
343 344 342 341 340 345 342 340 333 327 329 340 339 346 351 351 352 350 354 350 348 344 343 341 342 344 346 344 343 342 341 339 337 335 335 334 334 334
341 340 342 345 340 345 345 343 340 334 330 339 345 351 353 352 354 354 355 351 349 345 343 340 340 342 344 342 340 339 337 336 335 334 332 331 330 329
342 346 344 347 345 346 345 343 343 342 335 339 346 347 345 343 346 349 354 355 354 346 343 340 338 339 341 339 337 335 333 331 331 332 331 329 328 326
345 343 345 347 345 347 345 344 344 344 340 337 339 341 343 345 347 345 351 358 356 350 341 337 336 336 336 335 333 331 328 327 327 328 328 328 326 325
345 344 345 343 342 344 343 342 343 347 345 343 341 344 345 341 344 346 347 351 351 347 341 336 335 334 334 331 328 325 321 320 321 322 323 324 324 323
347 347 347 346 344 343 344 342 342 342 341 341 340 339 340 343 346 347 343 345 346 349 343 340 338 336 335 330 328 326 319 316 316 317 318 319 320 321
349 350 350 350 346 344 347 344 343 342 341 341 340 340 342 343 343 346 342 343 342 342 344 343 341 340 339 333 334 332 324 319 316 315 315 314 315 316
345 346 348 347 346 342 340 341 344 343 342 341 339 339 340 343 345 344 340 336 332 343 343 342 343 343 344 339 336 331 325 321 318 316 315 314 314 314
348 347 346 350 346 349 343 337 336 336 340 344 341 340 339 341 340 336 336 336 336 342 343 343 346 346 347 346 332 329 325 321 318 317 316 314 313 312
351 350 348 348 348 347 346 346 346 343 341 341 344 346 344 345 339 338 335 338 341 344 347 341 341 342 345 344 335 329 325 321 318 316 315 313 311 310
344 349 352 352 341 331 344 347 348 350 342 330 332 332 331 330 335 339 338 338 337 339 341 339 340 336 335 336 339 325 322 319 317 316 315 313 310 310
344 344 334 343 332 329 341 345 343 346 347 350 348 334 331 335 327 339 342 337 336 337 340 338 335 334 332 335 336 329 322 316 314 314 314 313 310 314
340 346 347 328 321 321 324 348 347 347 344 345 348 349 348 346 346 341 342 344 341 340 343 340 336 333 334 335 338 332 325 321 319 315 310 309 308 312
346 349 348 323 315 314 318 323 322 324 339 342 342 344 346 348 349 350 347 345 348 347 349 343 339 339 333 332 333 337 328 324 321 321 320 314 308 309
337 333 322 316 314 321 321 319 319 329 332 333 336 339 343 346 348 346 349 350 349 349 349 348 344 344 339 340 337 336 337 335 325 325 322 321 321 315
327 331 328 325 321 327 329 335 331 333 336 339 341 342 343 342 342 344 343 344 342 343 345 348 348 346 343 343 344 342 340 339 336 330 330 329 327 323
309 320 324 327 329 334 341 343 344 342 335 338 340 341 341 341 340 341 342 342 340 340 341 342 344 348 348 346 341 345 345 342 344 340 333 333 334 331
309 315 318 323 326 328 333 340 345 343 346 344 342 342 341 341 339 340 340 340 339 340 341 341 333 335 343 348 345 346 344 347 347 343 339 338 339 339
309 313 317 319 321 323 329 336 342 346 348 344 343 343 342 341 339 340 341 341 340 341 342 342 333 329 328 329 337 333 348 346 345 340 344 343 343 342
305 310 313 316 319 323 327 329 333 340 344 347 346 346 346 344 342 342 341 340 340 341 341 338 334 335 333 333 331 336 320 349 342 343 340 332 326 318
311 314 316 318 321 324 327 331 334 336 338 342 345 346 346 345 344 344 343 327 332 342 340 340 340 329 339 339 335 336 341 316 328 345 339 334 329 328
307 310 315 322 325 327 329 333 334 337 340 342 344 345 344 344 343 344 342 337 338 341 342 345 339 336 334 334 337 334 333 336 325 321 316 322 331 329
306 310 313 314 317 322 330 333 336 338 341 343 341 344 345 343 344 344 343 343 343 343 343 340 338 339 339 338 335 339 337 337 333 331 329 318 317 315
Wind_Speed
3 1 1 2 1 2 2 2 3 1 2 4 2 3 2 1 5 5 5 7 9 10 11 8 7 4 2 2 3 3 3 5 4 6 4 5 5 6
2 2 2 2 1 2 1 2 2 2 1 2 2 1 2 3 4 5 7 7 8 9 10 8 9 7 6 5 6 5 4 2 3 4 4 3 3 5
2 1 3 2 2 2 1 2 2 1 2 3 2 3 4 4 6 5 6 5 4 10 8 8 9 8 7 7 8 7 6 5 4 3 3 4 3 3
6 3 6 3 2 1 1 2 1 2 2 2 3 2 3 2 4 6 6 3 4 7 9 2 9 9 9 9 9 8 8 8 6 5 4 3 3 4
6 6 6 5 5 3 2 2 2 1 1 2 3 2 3 2 4 3 4 4 4 5 6 1 8 10 11 10 11 10 9 8 8 8 7 5 4 4
6 6 6 6 6 6 4 5 3 2 2 2 2 3 3 3 1 2 5 3 4 6 1 3 3 9 11 10 10 10 11 9 8 9 9 7 7 5
6 6 6 7 9 8 4 6 5 3 2 2 2 2 3 2 2 2 2 3 4 3 3 2 2 3 5 9 9 14 13 12 11 10 9 8 7 8
7 7 7 8 8 10 10 12 9 6 4 3 3 3 4 3 3 3 2 2 4 2 2 5 2 4 4 5 12 16 15 14 13 13 10 10 8 8
8 8 7 7 9 7 9 10 10 11 10 6 6 6 5 6 3 3 4 4 5 5 0 6 2 7 4 5 13 16 16 16 16 14 12 10 9 9
8 8 8 9 8 8 7 7 7 7 9 8 10 11 9 9 7 6 5 5 5 4 4 6 3 6 6 5 11 12 14 15 15 13 12 12 10 9
7 8 9 10 12 12 9 9 9 10 8 14 14 15 14 15 8 3 4 3 5 4 3 3 4 3 3 5 4 3 9 12 13 13 12 12 10 8
6 8 12 13 12 15 10 10 10 13 9 10 6 8 13 12 11 10 6 6 4 8 5 5 2 3 5 3 2 2 2 8 12 14 15 13 10 4
5 7 7 12 15 15 14 12 14 13 13 8 8 8 6 7 8 8 11 9 7 10 6 5 3 2 3 4 3 3 4 3 4 4 9 10 10 9
6 5 6 9 9 12 10 15 17 11 8 9 8 8 8 9 10 9 10 11 11 14 11 7 5 5 4 3 4 2 4 4 4 4 5 6 13 14
3 7 11 10 14 12 14 15 13 6 7 7 9 10 11 11 11 7 9 11 12 12 11 11 9 11 5 10 7 5 4 4 5 5 4 6 7 6
6 6 8 10 11 12 10 9 7 8 9 10 11 10 9 8 10 9 9 9 8 11 11 13 13 11 11 10 9 10 5 4 4 5 5 4 5 7
9 6 5 6 7 7 7 8 9 8 9 10 10 11 11 10 11 9 9 9 10 12 11 7 8 12 11 13 8 9 10 6 7 5 5 4 6 8
4 4 6 7 9 8 8 9 9 10 11 9 10 10 10 10 10 9 8 9 10 11 10 8 4 2 3 8 15 12 6 8 8 7 5 5 6 6
4 5 7 7 9 9 9 9 11 9 9 7 9 9 9 10 10 10 10 8 9 10 10 8 5 5 6 12 6 19 11 9 6 4 7 7 7 4
4 7 8 8 8 9 10 10 10 10 9 9 9 10 9 9 9 9 8 8 8 9 9 5 6 9 10 11 5 5 19 8 5 7 4 1 2 4
8 9 9 9 9 10 10 9 11 10 10 9 8 8 9 9 11 11 10 10 10 10 12 11 11 11 4 3 4 5 5 15 4 7 4 3 3 2
9 10 11 10 10 9 9 9 9 10 10 9 10 9 8 8 9 10 9 9 10 10 12 11 4 4 5 6 10 5 2 3 7 3 10 3 5 6
11 11 10 10 10 10 10 9 9 9 9 8 6 5 4 6 8 9 9 9 9 9 9 12 6 5 6 6 8 5 4 3 4 4 3 8 7 8
Wind_Direction
252 282 32 312 6 38 61 110 154 67 323 317 323 341 48 130 266 276 279 279 278 275 271 215 228 203 243 206 177 144 119 115 100 99 77 60 44 47
231 253 315 300 319 328 47 37 71 147 111 231 298 221 243 273 301 312 276 285 277 281 285 228 202 195 203 208 213 186 173 149 139 123 118 90 58 33
250 213 285 281 287 347 17 47 41 85 94 307 299 325 330 340 316 303 283 298 297 297 287 250 186 193 195 208 218 224 189 194 189 184 168 150 130 84
259 232 255 254 276 281 116 56 71 342 120 227 275 312 269 301 278 289 303 306 306 318 329 246 188 195 205 206 216 226 222 203 200 213 219 200 166 142
237 230 248 241 249 241 249 247 221 209 221 189 276 277 277 331 327 337 341 350 338 338 9 309 190 205 215 217 212 217 223 220 201 210 218 224 217 184
241 242 243 228 238 244 245 251 249 256 208 229 260 270 253 302 339 345 335 348 316 329 41 10 195 214 231 232 227 224 223 227 216 206 217 216 229 230
239 241 247 240 229 229 216 245 224 235 241 250 246 243 279 313 278 269 282 288 290 266 312 291 225 232 239 239 242 235 223 218 218 219 213 224 224 235
239 248 244 249 251 246 240 239 222 219 231 202 230 229 251 240 234 236 257 312 316 268 349 294 249 273 246 219 225 228 217 212 212 219 210 216 228 233
229 235 247 245 238 245 251 248 256 239 229 204 226 228 245 226 218 254 230 220 233 267 99 288 255 287 268 249 234 227 223 205 212 214 210 211 221 235
238 233 233 246 237 226 236 245 248 243 232 220 226 247 230 251 209 229 222 239 269 254 171 270 264 272 293 257 249 241 224 212 212 210 210 213 222 230
243 237 231 240 242 236 244 251 257 259 242 233 233 234 231 231 222 151 245 217 280 268 193 207 275 272 276 284 290 294 223 205 205 207 217 217 218 227
239 248 236 240 228 227 225 240 246 253 250 261 256 252 247 250 219 216 236 235 232 290 207 183 264 175 313 258 292 251 226 212 208 208 214 217 201 215
240 262 254 234 239 240 224 241 244 257 254 237 252 258 241 232 238 212 216 219 227 245 235 179 237 201 212 282 276 236 208 208 212 226 218 218 206 193
272 275 285 312 298 275 257 241 253 254 265 265 256 251 250 251 245 231 220 220 229 241 258 189 228 214 202 245 249 270 229 232 199 227 215 202 208 209
274 268 270 281 290 285 258 249 253 243 237 243 248 250 247 253 256 240 231 233 239 239 241 237 230 252 224 253 259 235 214 231 203 215 196 203 208 187
271 275 271 272 265 258 280 265 234 232 231 241 252 257 260 250 244 237 241 242 245 256 232 234 237 231 248 241 245 257 228 233 187 216 217 207 204 201
328 298 297 286 286 276 267 256 256 236 227 239 249 258 259 255 248 236 233 239 240 254 261 243 229 234 234 238 240 237 248 229 230 213 163 229 216 209
263 265 269 265 268 270 273 277 263 253 250 240 244 247 253 256 255 246 234 230 236 246 252 248 221 221 244 250 214 245 225 233 237 206 197 202 246 210
251 272 264 270 270 269 267 269 270 259 250 238 240 243 244 245 246 251 244 235 240 247 250 250 219 203 243 259 263 215 233 228 227 204 209 209 230 239
256 271 267 261 261 260 262 262 265 267 263 252 244 251 247 241 242 239 238 234 238 251 259 233 215 220 220 241 229 247 207 224 197 225 216 152 292 193
302 295 280 270 265 263 262 260 260 262 260 265 261 257 252 237 243 241 232 220 238 251 252 248 233 225 237 13 277 259 263 217 231 201 192 193 217 257
290 293 296 294 282 271 269 265 262 258 255 250 250 251 253 248 250 249 230 229 234 233 247 258 229 185 200 210 249 254 265 248 229 347 40 69 178 215
293 292 295 293 293 298 296 284 275 272 255 238 234 242 254 285 275 256 247 239 249 253 254 258 243 194 199 205 231 254 234 218 194 215 209 357 26 26